This is the latest recevied weather packets stored in our database for station/object SP2WPY-13. If no packets are shown the sender has not sent any weather packets the latest 10 day(s).
| Time | Temp. | Humidity | Pressure | Rain* | Wind** | Luminosity | Snow |
|---|---|---|---|---|---|---|---|
| 1787488801 | 17.22° C | 92% | 1018.3 hPa | - | - | - | - |
| 1787488527 | 16.67° C | 96% | 1018.3 hPa | - | - | - | - |
| 1787488206 | 16.67° C | 95% | 1018.3 hPa | - | - | - | - |
| 1787487933 | 16.67° C | 96% | 1018.3 hPa | - | - | - | - |
| 1787487612 | 16.67° C | 97% | 1018.3 hPa | - | - | - | - |
| 1787487339 | 16.67° C | 98% | 1018.3 hPa | - | - | - | - |
| 1787487019 | 17.22° C | 97% | 1018.2 hPa | - | - | - | - |
| 1787486743 | 16.67° C | 96% | 1018.2 hPa | - | - | - | - |
| 1787486424 | 16.67° C | 95% | 1018.2 hPa | - | - | - | - |
| 1787486103 | 17.22° C | 97% | 1018.1 hPa | - | - | - | - |
| 1787485830 | 16.67° C | 97% | 1018.1 hPa | - | - | - | - |
| 1787485511 | 16.67° C | 97% | 1018.1 hPa | - | - | - | - |
| 1787485238 | 16.11° C | 97% | 1018 hPa | - | - | - | - |
| 1787484917 | 16.67° C | 95% | 1018 hPa | - | - | - | - |
| 1787484643 | 17.22° C | 96% | 1018 hPa | - | - | - | - |
| 1787484323 | 16.67° C | 96% | 1017.9 hPa | - | - | - | - |
| 1787484003 | 16.67° C | 92% | 1017.9 hPa | - | - | - | - |
| 1787483729 | 16.67° C | 92% | 1017.8 hPa | - | - | - | - |
| 1787483409 | 16.67° C | 91% | 1017.7 hPa | - | - | - | - |
| 1787483135 | 17.22° C | 93% | 1017.7 hPa | - | - | - | - |
| 1787482817 | 17.22° C | 94% | 1017.8 hPa | - | - | - | - |
| 1787482540 | 17.22° C | 90% | 1017.7 hPa | - | - | - | - |
| 1787482222 | 18.33° C | 89% | 1017.7 hPa | - | - | - | - |
| 1787481902 | 17.22° C | 95% | 1017.8 hPa | - | - | - | - |
| 1787481627 | 16.67° C | 100% | 1017.7 hPa | - | - | - | - |
* Rain since midnight (hover to see other rain measurements)
** Current wind speed in m/s (hover to see current wind gust speed)